Weather History for Pine Ridge, SD

Change the Weather History Date:

Friday, November 8, 2013

  Actual Average Record
Temperature  
Mean Temperature 43 °F 38 °F  
Max Temperature 54 °F 52 °F 86 °F (1999)
Min Temperature 32 °F 23 °F 3 °F (2000)
Degree Days  
Heating Degree Days 22 27  
Month to date heating degree days 234 204  
Since 1 July heating degree days 1011 959  
Cooling Degree Days 0 0  
Month to date cooling degree days 0 0  
Year to date cooling degree days 804 717  
Moisture  
Dew Point 28 °F    
Average Humidity 55    
Maximum Humidity 75    
Minimum Humidity 35    
Precipitation  
Precipitation 0.00 in 0.03 in 0.00 in (2015)
Month to date precipitation 0.68 0.21  
Year to date precipitation 19.81 16.81  
Sea Level Pressure  
Sea Level Pressure 29.82 in    
Wind  
Wind Speed 11 mph (WSW)    
Max Wind Speed 24 mph    
Max Gust Speed 31 mph    
Visibility 10 miles    
Events      
T = Trace of Precipitation, MM = Missing Value Source: NWS Daily Summary

Daily Weather History Graph

Daily Weather History Graph

Search for Another Location

Airport:

Trip Planner

Search our weather history database for the weather conditions in past years. The results will help you decide how hot, cold, wet, or windy it might be!

Date:

Astronomy

Nov. 08, 2013 Rise Set
Actual Time 6:33 AM MST 4:33 PM MST
Civil Twilight 6:03 AM MST 5:03 PM MST
Nautical Twilight 5:29 AM MST 5:37 PM MST
Astronomical Twilight 4:56 AM MST 6:10 PM MST
Moon 11:31 AM MST (11/8) 9:57 PM MST (11/8)
Length of Visible Light 10h 59m
Length of Day
9h 59m
Waxing Crescent, 34% of the Moon is Illuminated
Nov 8
Waxing Crescent
Nov 9
First Quarter
Nov 17
Full
Nov 25
Last Quarter
Dec 2
New

Hourly Weather History & Observations

Time (MST) Temp. Windchill Dew Point Humidity Pressure Visibility Wind Dir Wind Speed Gust Speed Precip Events Conditions
12:52 AM 43.0 °F 35.1 °F 28.9 °F 58% 29.84 in 10.0 mi South 17.3 mph - N/A   Clear
1:52 AM 43.0 °F 35.1 °F 28.0 °F 56% 29.81 in 10.0 mi South 17.3 mph 23.0 mph N/A   Clear
2:52 AM 42.1 °F 33.1 °F 28.0 °F 58% 29.78 in 10.0 mi South 20.7 mph 28.8 mph N/A   Clear
3:52 AM 42.1 °F 33.9 °F 28.0 °F 58% 29.73 in 10.0 mi SSW 17.3 mph 26.5 mph N/A   Clear
4:52 AM 42.1 °F 34.9 °F 28.9 °F 60% 29.72 in 10.0 mi South 13.8 mph 23.0 mph N/A   Mostly Cloudy
5:52 AM 43.0 °F 35.1 °F 30.0 °F 60% 29.68 in 10.0 mi South 17.3 mph 24.2 mph N/A   Clear
6:52 AM 50.0 °F - 30.0 °F 46% 29.65 in 10.0 mi SW 11.5 mph 17.3 mph N/A   Clear
7:52 AM 48.9 °F - 30.0 °F 48% 29.69 in 10.0 mi West 8.1 mph - N/A   Clear
8:52 AM 48.9 °F - 30.9 °F 50% 29.71 in 10.0 mi WNW 9.2 mph - N/A   Clear
9:52 AM 51.1 °F - 30.9 °F 46% 29.74 in 10.0 mi West 10.4 mph 21.9 mph N/A   Clear
10:52 AM 52.0 °F - 36.0 °F 54% 29.77 in 10.0 mi NW 10.4 mph 18.4 mph N/A   Clear
11:52 AM 53.1 °F - 37.0 °F 55% 29.77 in 10.0 mi WSW 5.8 mph - N/A   Mostly Cloudy
12:52 PM 54.0 °F - 28.0 °F 37% 29.76 in 10.0 mi WNW 19.6 mph 27.6 mph N/A   Clear
1:52 PM 53.1 °F - 27.0 °F 37% 29.79 in 10.0 mi WNW 23.0 mph 28.8 mph N/A   Clear
2:52 PM 52.0 °F - 26.1 °F 37% 29.81 in 10.0 mi WNW 18.4 mph 24.2 mph N/A   Clear
3:52 PM 52.0 °F - 25.0 °F 35% 29.82 in 10.0 mi WNW 15.0 mph 21.9 mph N/A   Clear
4:52 PM 46.0 °F 43.1 °F 25.0 °F 44% 29.86 in 10.0 mi NW 5.8 mph - N/A   Clear
5:52 PM 39.0 °F 35.7 °F 26.1 °F 60% 29.90 in 10.0 mi NW 4.6 mph - N/A   Clear
6:52 PM 35.1 °F 28.6 °F 26.1 °F 70% 29.92 in 10.0 mi South 8.1 mph - N/A   Clear
7:52 PM 36.0 °F - 28.0 °F 73% 29.94 in 10.0 mi Calm Calm - N/A   Clear
8:52 PM 36.0 °F - 26.1 °F 67% 29.96 in 10.0 mi Calm Calm - N/A   Clear
9:52 PM 33.1 °F 30.0 °F 26.1 °F 75% 29.99 in 10.0 mi WSW 3.5 mph - N/A   Clear
10:52 PM 34.0 °F 31.0 °F 26.1 °F 73% 30.01 in 10.0 mi SW 3.5 mph - N/A   Clear
11:52 PM 35.1 °F 32.2 °F 25.0 °F 67% 30.03 in 10.0 mi SW 3.5 mph - N/A   Clear